OK,54,29,680,54,2014-10-01T01:40:00,0,28072007,206449
OK,54,29,680,54,2014-10-01T01:45:00,0,28072450,206449
OK,54,29,680,54,2014-10-01T01:50:00,0,28072899,206449
OK,47,33,680,47,2014-10-01T01:55:00,0,28073346,206449
OK,47,33,680,47,2014-10-01T02:00:00,0,28073768,206449
OK,47,33,680,47,2014-10-01T02:05:00,0,28074112,206449
OK,47,33,680,47,2014-10-01T02:10:00,0,28074561,206449
OK,47,33,680,47,2014-10-01T02:15:00,0,28075001,206449
OK,47,33,680,47,2014-10-01T02:20:00,0,28075450,206449
OK,47,33,680,47,2014-10-01T02:25:00,0,28075899,206449
OK,47,33,680,47,2014-10-01T02:30:00,0,28076282,206449
OK,33,48,680,33,2014-10-01T02:35:00,1,28076731,206449
OK,33,48,680,33,2014-10-01T02:40:00,1,28077180,206449
OK,33,48,680,33,2014-10-01T02:45:00,0,28077629,206449
OK,33,48,680,33,2014-10-01T02:50:00,0,28078032,206449
OK,33,48,680,33,2014-10-01T02:55:00,0,28078481,206449
OK,33,48,680,33,2014-10-01T03:00:00,0,28078926,206449
OK,33,48,680,33,2014-10-01T03:05:00,0,28079374,206449
OK,33,48,680,33,2014-10-01T03:10:00,0,28079817,206449
OK,33,48,680,33,2014-10-01T03:15:00,0,28080266,206449
OK,33,48,680,33,2014-10-01T03:20:00,0,28080600,206449
OK,33,48,680,33,2014-10-01T03:25:00,0,28081049,206449
OK,52,30,680,52,2014-10-01T03:30:00,1,28081498,206449
OK,52,30,680,52,2014-10-01T03:35:00,0,28081945,206449
OK,52,30,680,52,2014-10-01T03:40:00,0,28082394,206449
OK,31,51,680,31,2014-10-01T03:45:00,1,28082827,206449
OK,31,51,680,31,2014-10-01T03:50:00,1,28083259,206449
OK,31,51,680,31,2014-10-01T03:55:00,0,28083708,206449
OK,31,51,680,31,2014-10-01T04:00:00,0,28084157,206449
OK,43,36,680,43,2014-10-01T04:05:00,1,28084598,206449
OK,62,25,680,62,2014-10-01T04:10:00,2,28085023,206449
OK,33,48,680,33,2014-10-01T04:15:00,3,28085472,206449
OK,31,51,680,31,2014-10-01T04:20:00,4,28085917,206449
OK,29,54,680,29,2014-10-01T04:25:00,1,28086366,206449
OK,31,51,680,31,2014-10-01T04:30:00,1,28086808,206449
OK,62,25,680,62,2014-10-01T04:35:00,4,28087257,206449
OK,70,22,680,70,2014-10-01T04:40:00,5,28087702,206449
OK,38,41,680,38,2014-10-01T04:45:00,1,28088151,206449
OK,36,44,680,36,2014-10-01T04:50:00,2,28088575,206449
OK,37,42,680,37,2014-10-01T04:55:00,2,28089024,206449
OK,41,38,680,41,2014-10-01T05:00:00,1,28089454,206449
OK,66,24,680,66,2014-10-01T05:05:00,4,28089903,206449
OK,72,22,680,72,2014-10-01T05:10:00,7,28090352,206449
OK,68,23,680,68,2014-10-01T05:15:00,10,28090696,206449
OK,50,31,680,50,2014-10-01T05:20:00,6,28091145,206449
OK,89,17,680,89,2014-10-01T05:25:00,1,28091594,206449
OK,43,36,680,43,2014-10-01T05:30:00,1,28092011,206449
OK,87,18,680,87,2014-10-01T05:35:00,3,28092460,206449
OK,82,19,680,82,2014-10-01T05:40:00,4,28092904,206449
OK,77,20,680,77,2014-10-01T05:45:00,1,28093345,206449
OK,76,20,680,76,2014-10-01T05:50:00,3,28093776,206449
OK,70,22,680,70,2014-10-01T05:55:00,5,28094225,206449
OK,70,22,680,70,2014-10-01T06:00:00,1,28094636,206449
OK,67,23,680,67,2014-10-01T06:05:00,1,28095081,206449
OK,61,26,680,61,2014-10-01T06:10:00,4,28095528,206449
OK,58,27,680,58,2014-10-01T06:15:00,4,28095977,206449
OK,35,45,680,35,2014-10-01T06:20:00,5,28096390,206449
OK,56,28,680,56,2014-10-01T06:25:00,5,28096839,206449
OK,59,26,680,59,2014-10-01T06:30:00,4,28097273,206449
OK,77,20,680,77,2014-10-01T06:35:00,4,28097722,206449
OK,81,19,680,81,2014-10-01T06:40:00,2,28098171,206449
OK,57,27,680,57,2014-10-01T06:45:00,1,28098608,206449
OK,57,27,680,57,2014-10-01T06:50:00,0,28099052,206449
OK,42,37,680,42,2014-10-01T06:55:00,5,28099500,206449
OK,58,27,680,58,2014-10-01T07:00:00,6,28099843,206449
OK,54,29,680,54,2014-10-01T07:05:00,6,28100284,206449
OK,39,40,680,39,2014-10-01T07:10:00,4,28100599,206449
OK,56,28,680,56,2014-10-01T07:15:00,8,28101048,206449
OK,64,24,680,64,2014-10-01T07:20:00,8,28101419,206449
OK,69,23,680,69,2014-10-01T07:25:00,4,28101868,206449
OK,76,20,680,76,2014-10-01T07:30:00,3,28102304,206449
OK,84,18,680,84,2014-10-01T07:35:00,2,28102753,206449
OK,60,26,680,60,2014-10-01T07:40:00,6,28103180,206449
OK,60,26,680,60,2014-10-01T07:45:00,4,28103627,206449
OK,41,38,680,41,2014-10-01T07:50:00,7,28104072,206449
OK,41,38,680,41,2014-10-01T07:55:00,10,28104517,206449
OK,52,30,680,52,2014-10-01T08:00:00,6,28104958,206449
OK,58,27,680,58,2014-10-01T08:05:00,6,28105403,206449
OK,60,26,680,60,2014-10-01T08:10:00,6,28105843,206449
OK,54,29,680,54,2014-10-01T08:15:00,5,28106292,206449
OK,46,34,680,46,2014-10-01T08:20:00,4,28106729,206449
OK,51,31,680,51,2014-10-01T08:25:00,2,28107135,206449
OK,77,20,680,77,2014-10-01T08:30:00,8,28107567,206449
OK,73,21,680,73,2014-10-01T08:35:00,6,28108016,206449
OK,44,36,680,44,2014-10-01T08:40:00,3,28108455,206449
OK,51,31,680,51,2014-10-01T08:45:00,2,28108904,206449
OK,62,25,680,62,2014-10-01T08:50:00,5,28109332,206449
OK,62,25,680,62,2014-10-01T08:55:00,5,28109781,206449
OK,42,37,680,42,2014-10-01T09:00:00,4,28110124,206449
OK,45,35,680,45,2014-10-01T09:05:00,7,28110573,206449
OK,56,28,680,56,2014-10-01T09:10:00,12,28110996,206449
OK,56,28,680,56,2014-10-01T09:15:00,8,28111445,206449
OK,32,49,680,32,2014-10-01T09:20:00,2,28111874,206449
OK,68,23,680,68,2014-10-01T09:25:00,1,28112323,206449
OK,52,30,680,52,2014-10-01T09:30:00,4,28112664,206449
OK,36,44,680,36,2014-10-01T09:35:00,3,28113113,206449
OK,36,44,680,36,2014-10-01T09:40:00,1,28113537,206449
OK,96,16,680,96,2014-10-01T09:45:00,1,28113986,206449
OK,67,23,680,67,2014-10-01T09:50:00,4,28114418,206449
OK,51,31,680,51,2014-10-01T09:55:00,3,28114866,206449
OK,47,33,680,47,2014-10-01T10:00:00,2,28115221,206449
OK,46,34,680,46,2014-10-01T10:05:00,2,28115670,206449
OK,67,23,680,67,2014-10-01T10:10:00,3,28116082,206449
OK,67,23,680,67,2014-10-01T10:15:00,6,28116531,206449
OK,58,27,680,58,2014-10-01T10:20:00,4,28116939,206449
OK,49,32,680,49,2014-10-01T10:25:00,5,28117388,206449
OK,54,29,680,54,2014-10-01T10:30:00,11,28117813,206449
OK,54,29,680,54,2014-10-01T10:35:00,12,28118262,206449
OK,46,34,680,46,2014-10-01T10:40:00,6,28118707,206449
OK,44,36,680,44,2014-10-01T10:45:00,6,28119154,206449
OK,66,24,680,66,2014-10-01T10:50:00,9,28119598,206449
OK,81,19,680,81,2014-10-01T10:55:00,9,28120046,206449
OK,61,26,680,61,2014-10-01T11:00:00,4,28120494,206449
OK,56,28,680,56,2014-10-01T11:05:00,10,28120943,206449
OK,46,34,680,46,2014-10-01T11:10:00,10,28121326,206449
OK,58,27,680,58,2014-10-01T11:15:00,6,28121775,206449
OK,45,35,680,45,2014-10-01T11:20:00,5,28122213,206449
OK,47,33,680,47,2014-10-01T11:25:00,6,28122662,206449
OK,75,21,680,75,2014-10-01T11:30:00,3,28123103,206449
OK,79,20,680,79,2014-10-01T11:35:00,2,28123552,206449
OK,68,23,680,68,2014-10-01T11:40:00,5,28123984,206449
OK,78,20,680,78,2014-10-01T11:45:00,5,28124433,206449
OK,53,29,680,53,2014-10-01T11:50:00,7,28124835,206449
OK,45,35,680,45,2014-10-01T11:55:00,10,28125284,206449
OK,46,34,680,46,2014-10-01T12:00:00,6,28125713,206449
OK,44,36,680,44,2014-10-01T12:05:00,0,28126162,206449
OK,62,25,680,62,2014-10-01T12:10:00,3,28126514,206449
OK,62,25,680,62,2014-10-01T12:15:00,6,28126963,206449
OK,50,31,680,50,2014-10-01T12:20:00,9,28127412,206449
OK,48,33,680,48,2014-10-01T12:25:00,3,28127861,206449
OK,38,41,680,38,2014-10-01T12:30:00,9,28128289,206449
OK,44,36,680,44,2014-10-01T12:35:00,11,28128738,206449
OK,61,26,680,61,2014-10-01T12:40:00,5,28129173,206449
OK,60,26,680,60,2014-10-01T12:45:00,4,28129622,206449
OK,40,39,680,40,2014-10-01T12:50:00,4,28130056,206449
OK,46,34,680,46,2014-10-01T12:55:00,4,28130505,206449
OK,55,28,680,55,2014-10-01T13:00:00,8,28130933,206449
OK,65,24,680,65,2014-10-01T13:05:00,11,28131382,206449
OK,68,23,680,68,2014-10-01T13:10:00,11,28131819,206449
OK,78,20,680,78,2014-10-01T13:15:00,7,28132268,206449
OK,84,18,680,84,2014-10-01T13:20:00,7,28132706,206449
OK,79,20,680,79,2014-10-01T13:25:00,11,28133153,206449
OK,80,19,680,80,2014-10-01T13:30:00,7,28133591,206449
OK,80,19,680,80,2014-10-01T13:35:00,9,28134040,206449
OK,81,19,680,81,2014-10-01T13:40:00,7,28134479,206449
OK,75,21,680,75,2014-10-01T13:45:00,11,28134928,206449
OK,74,21,680,74,2014-10-01T13:50:00,12,28135347,206449
OK,62,25,680,62,2014-10-01T13:55:00,13,28135796,206449
OK,50,31,680,50,2014-10-01T14:00:00,8,28136233,206449
OK,74,21,680,74,2014-10-01T14:05:00,4,28136682,206449
OK,68,23,680,68,2014-10-01T14:10:00,16,28137122,206449
OK,64,24,680,64,2014-10-01T14:15:00,12,28137571,206449
OK,81,19,680,81,2014-10-01T14:20:00,7,28138005,206449
OK,87,18,680,87,2014-10-01T14:25:00,7,28138454,206449
OK,65,24,680,65,2014-10-01T14:30:00,7,28138882,206449
OK,63,25,680,63,2014-10-01T14:35:00,4,28139331,206449
OK,76,20,680,76,2014-10-01T14:40:00,3,28139742,206449
OK,66,24,680,66,2014-10-01T14:45:00,10,28140191,206449
OK,66,24,680,66,2014-10-01T14:50:00,8,28140633,206449
OK,55,28,680,55,2014-10-01T14:55:00,9,28141082,206449
OK,47,33,680,47,2014-10-01T15:00:00,6,28141508,206449
OK,51,31,680,51,2014-10-01T15:05:00,3,28141957,206449
OK,57,27,680,57,2014-10-01T15:10:00,7,28142385,206449
OK,65,24,680,65,2014-10-01T15:15:00,8,28142834,206449
OK,50,31,680,50,2014-10-01T15:20:00,6,28143261,206449
OK,63,25,680,63,2014-10-01T15:25:00,8,28143710,206449
OK,68,23,680,68,2014-10-01T15:30:00,10,28144158,206449
OK,46,34,680,46,2014-10-01T15:35:00,7,28144607,206449
OK,44,36,680,44,2014-10-01T15:40:00,2,28145028,206449
OK,64,24,680,64,2014-10-01T15:45:00,2,28145442,206449
OK,69,23,680,69,2014-10-01T15:50:00,5,28145891,206449
OK,44,36,680,44,2014-10-01T15:55:00,6,28146340,206449
OK,41,38,680,41,2014-10-01T16:00:00,7,28146789,206449
OK,54,29,680,54,2014-10-01T16:05:00,6,28147197,206449
OK,47,33,680,47,2014-10-01T16:10:00,2,28147641,206449
OK,45,35,680,45,2014-10-01T16:15:00,0,28148090,206449
OK,51,31,680,51,2014-10-01T16:20:00,2,28148491,206449
OK,37,42,680,37,2014-10-01T16:25:00,1,28148940,206449
OK,47,33,680,47,2014-10-01T16:30:00,3,28149379,206449
OK,55,28,680,55,2014-10-01T16:35:00,2,28149828,206449
OK,37,42,680,37,2014-10-01T16:40:00,7,28150254,206449
OK,43,36,680,43,2014-10-01T16:45:00,5,28150703,206449
OK,55,28,680,55,2014-10-01T16:50:00,3,28151121,206449
OK,89,17,680,89,2014-10-01T16:55:00,2,28151570,206449
OK,45,35,680,45,2014-10-01T17:05:00,3,28152019,206449
OK,43,36,680,43,2014-10-01T17:10:00,4,28152468,206449
OK,46,34,680,46,2014-10-01T17:15:00,3,28152914,206449
OK,57,27,680,57,2014-10-01T17:20:00,2,28153361,206449
OK,63,25,680,63,2014-10-01T17:25:00,7,28153810,206449
OK,75,21,680,75,2014-10-01T17:30:00,6,28154220,206449
OK,56,28,680,56,2014-10-01T17:35:00,4,28154669,206449
OK,70,22,680,70,2014-10-01T17:40:00,3,28155111,206449
OK,51,31,680,51,2014-10-01T17:45:00,3,28155559,206449
OK,74,21,680,74,2014-10-01T17:50:00,3,28155977,206449
OK,86,18,680,86,2014-10-01T17:55:00,0,28156426,206449
OK,86,18,680,86,2014-10-01T18:00:00,0,28156874,206449
OK,86,18,680,86,2014-10-01T18:05:00,0,28157313,206449
OK,66,24,680,66,2014-10-01T18:10:00,2,28157743,206449
OK,67,23,680,67,2014-10-01T18:15:00,5,28158191,206449
OK,46,34,680,46,2014-10-01T18:20:00,3,28158635,206449
OK,42,37,680,42,2014-10-01T18:25:00,5,28159080,206449
OK,32,49,680,32,2014-10-01T18:30:00,2,28159512,206449
OK,32,49,680,32,2014-10-01T18:35:00,0,28159862,206449
OK,61,26,680,61,2014-10-01T18:40:00,2,28160311,206449
OK,52,30,680,52,2014-10-01T18:45:00,6,28160760,206449
OK,49,32,680,49,2014-10-01T18:50:00,4,28161198,206449
OK,42,37,680,42,2014-10-01T18:55:00,2,28161647,206449
OK,42,37,680,42,2014-10-01T19:00:00,2,28162064,206449
OK,74,21,680,74,2014-10-01T19:05:00,1,28162513,206449
OK,74,21,680,74,2014-10-01T19:10:00,0,28162907,206449
OK,46,34,680,46,2014-10-01T19:15:00,1,28163346,206449
OK,46,34,680,46,2014-10-01T19:20:00,2,28163794,206449
OK,40,39,680,40,2014-10-01T19:25:00,2,28164243,206449
OK,69,23,680,69,2014-10-01T19:30:00,2,28164674,206449
OK,84,18,680,84,2014-10-01T19:35:00,3,28165123,206449
OK,57,27,680,57,2014-10-01T19:40:00,3,28165548,206449
OK,44,36,680,44,2014-10-01T19:45:00,2,28165996,206449
OK,64,24,680,64,2014-10-01T19:50:00,2,28166434,206449
OK,84,18,680,84,2014-10-01T19:55:00,2,28166799,206449
OK,92,17,680,92,2014-10-01T20:00:00,1,28167248,206449
OK,92,17,680,92,2014-10-01T20:05:00,0,28167677,206449
OK,92,17,680,92,2014-10-01T20:10:00,0,28168110,206449
OK,92,17,680,92,2014-10-01T20:15:00,0,28168559,206449
OK,92,17,680,92,2014-10-01T20:20:00,0,28169004,206449
OK,42,37,680,42,2014-10-01T20:25:00,1,28169453,206449
OK,42,37,680,42,2014-10-01T20:30:00,1,28169901,206449
OK,36,44,680,36,2014-10-01T20:35:00,3,28170327,206449
OK,36,44,680,36,2014-10-01T20:40:00,3,28170772,206449
OK,36,44,680,36,2014-10-01T20:45:00,0,28171220,206449
OK,58,27,680,58,2014-10-01T20:50:00,1,28171657,206449
OK,58,27,680,58,2014-10-01T20:55:00,1,28172103,206449
OK,58,27,680,58,2014-10-01T21:00:00,0,28172551,206449
OK,58,27,680,58,2014-10-01T21:05:00,0,28172997,206449
OK,58,27,680,58,2014-10-01T21:10:00,0,28173443,206449
OK,27,58,680,27,2014-10-01T21:15:00,1,28173892,206449
OK,27,58,680,27,2014-10-01T21:20:00,0,28174333,206449
OK,27,58,680,27,2014-10-01T21:25:00,0,28174782,206449
OK,27,58,680,27,2014-10-01T21:30:00,0,28175203,206449
OK,27,58,680,27,2014-10-01T21:35:00,0,28175604,206449
OK,27,58,680,27,2014-10-01T21:40:00,0,28176053,206449
OK,27,58,680,27,2014-10-01T21:45:00,0,28176502,206449
OK,27,58,680,27,2014-10-01T21:50:00,0,28176951,206449
OK,27,58,680,27,2014-10-01T21:55:00,0,28177307,206449
OK,27,58,680,27,2014-10-01T22:00:00,0,28177747,206449
OK,27,58,680,27,2014-10-01T22:05:00,0,28178193,206449
OK,27,58,680,27,2014-10-01T22:10:00,0,28178642,206449
OK,27,58,680,27,2014-10-01T22:15:00,0,28179089,206449
OK,27,58,680,27,2014-10-01T22:20:00,0,28179523,206449
OK,27,58,680,27,2014-10-01T22:25:00,0,28179966,206449
OK,27,58,680,27,2014-10-01T22:30:00,0,28180413,206449
OK,27,58,680,27,2014-10-01T22:35:00,0,28180811,206449
OK,27,58,680,27,2014-10-01T22:40:00,0,28181260,206449
OK,24,66,680,24,2014-10-01T22:45:00,0,28181684,206449
OK,24,66,680,24,2014-10-01T22:50:00,0,28182132,206449
OK,24,66,680,24,2014-10-01T22:55:00,0,28182579,206449
OK,24,66,680,24,2014-10-01T23:00:00,0,28183028,206449
OK,24,66,680,24,2014-10-01T23:05:00,0,28183445,206449
OK,24,66,680,24,2014-10-01T23:10:00,0,28183878,206449
OK,24,66,680,24,2014-10-01T23:15:00,0,28184323,206449
OK,24,66,680,24,2014-10-01T23:20:00,0,28184772,206449
OK,24,66,680,24,2014-10-01T23:25:00,0,28185207,206449
OK,24,66,680,24,2014-10-01T23:30:00,0,28185655,206449
OK,29,54,680,29,2014-10-01T23:35:00,1,28186056,206449
OK,29,54,680,29,2014-10-01T23:40:00,0,28186478,206449
OK,29,54,680,29,2014-10-01T23:45:00,0,28186910,206449
OK,29,54,680,29,2014-10-01T23:50:00,0,28187318,206449
OK,29,54,680,29,2014-10-01T23:55:00,0,28187767,206449
OK,29,54,680,29,2014-10-02T00:00:00,0,28188216,206449
OK,29,54,680,29,2014-10-02T00:05:00,0,28188654,206449
OK,29,54,680,29,2014-10-02T00:10:00,0,28189093,206449
OK,29,54,680,29,2014-10-02T00:15:00,0,28189542,206449
OK,29,54,680,29,2014-10-02T00:20:00,0,28189964,206449
OK,29,54,680,29,2014-10-02T00:30:00,0,28190766,206449
OK,29,54,680,29,2014-10-02T00:35:00,0,28191215,206449
OK,29,54,680,29,2014-10-02T00:40:00,0,28191641,206449
OK,29,54,680,29,2014-10-02T00:45:00,0,28191970,206449
OK,29,54,680,29,2014-10-02T00:50:00,0,28192419,206449
OK,29,54,680,29,2014-10-02T00:55:00,0,28192852,206449
OK,29,54,680,29,2014-10-02T01:05:00,0,28193663,206449
OK,29,54,680,29,2014-10-02T01:10:00,0,28194112,206449
OK,29,54,680,29,2014-10-02T01:15:00,0,28194561,206449
OK,29,54,680,29,2014-10-02T01:25:00,0,28195246,206449
OK,29,54,680,29,2014-10-02T01:30:00,0,28195695,206449
OK,29,54,680,29,2014-10-02T01:35:00,0,28196144,206449
OK,29,54,680,29,2014-10-02T01:40:00,0,28196428,206449
OK,29,54,680,29,2014-10-02T01:45:00,0,28196877,206449
OK,29,54,680,29,2014-10-02T01:50:00,0,28197300,206449
OK,29,54,680,29,2014-10-02T01:55:00,0,28197749,206449
OK,29,54,680,29,2014-10-02T02:00:00,0,28198197,206449
OK,29,54,680,29,2014-10-02T02:05:00,0,28198645,206449
OK,29,54,680,29,2014-10-02T02:10:00,0,28199094,206449
OK,29,54,680,29,2014-10-02T02:15:00,0,28199466,206449
OK,29,54,680,29,2014-10-02T02:20:00,0,28199908,206449
OK,29,54,680,29,2014-10-02T02:25:00,0,28200350,206449
OK,29,54,680,29,2014-10-02T02:30:00,0,28200793,206449
OK,29,54,680,29,2014-10-02T02:35:00,0,28201242,206449
OK,29,54,680,29,2014-10-02T02:45:00,0,28201673,206449
OK,32,49,680,32,2014-10-02T02:50:00,1,28202122,206449
OK,32,49,680,32,2014-10-02T02:55:00,1,28202571,206449
OK,32,49,680,32,2014-10-02T03:00:00,0,28203013,206449
OK,32,49,680,32,2014-10-02T03:05:00,0,28203461,206449
OK,32,49,680,32,2014-10-02T03:10:00,0,28203896,206449
OK,32,49,680,32,2014-10-02T03:30:00,0,28204345,206449
OK,32,49,680,32,2014-10-02T03:35:00,0,28204794,206449
OK,32,49,680,32,2014-10-02T03:40:00,0,28205243,206449
OK,32,49,680,32,2014-10-02T03:45:00,0,28205671,206449
OK,32,49,680,32,2014-10-02T03:55:00,0,28206501,206449
OK,32,49,680,32,2014-10-02T04:00:00,0,28206950,206449
OK,32,49,680,32,2014-10-02T04:05:00,0,28207399,206449
OK,67,23,680,67,2014-10-02T04:10:00,1,28207818,206449
OK,67,23,680,67,2014-10-02T04:15:00,1,28208267,206449
OK,34,46,680,34,2014-10-02T04:20:00,2,28208694,206449
OK,32,49,680,32,2014-10-02T04:25:00,1,28209143,206449
OK,54,29,680,54,2014-10-02T04:30:00,5,28209581,206449
OK,43,36,680,43,2014-10-02T04:35:00,3,28210030,206449
OK,56,28,680,56,2014-10-02T04:40:00,4,28210453,206449
OK,50,31,680,50,2014-10-02T04:45:00,0,28210902,206449
OK,50,31,680,50,2014-10-02T04:50:00,0,28211327,206449
OK,67,23,680,67,2014-10-02T04:55:00,4,28211771,206449
OK,56,28,680,56,2014-10-02T05:00:00,1,28212149,206449
OK,72,22,680,72,2014-10-02T05:05:00,5,28212598,206449
OK,86,18,680,86,2014-10-02T05:10:00,0,28213027,206449
OK,72,22,680,72,2014-10-02T05:15:00,4,28213476,206449
OK,91,17,680,91,2014-10-02T05:20:00,1,28213914,206449
OK,80,19,680,80,2014-10-02T05:25:00,2,28214363,206449
OK,80,19,680,80,2014-10-02T05:30:00,2,28214776,206449
OK,80,19,680,80,2014-10-02T05:35:00,0,28215225,206449
OK,77,20,680,77,2014-10-02T05:40:00,3,28215641,206449
OK,44,36,680,44,2014-10-02T05:45:00,1,28216090,206449
OK,44,36,680,44,2014-10-02T05:50:00,0,28216429,206449
OK,41,38,680,41,2014-10-02T05:55:00,8,28216869,206449
OK,41,38,680,41,2014-10-02T06:00:00,5,28217316,206449
OK,46,34,680,46,2014-10-02T06:05:00,5,28217765,206449
OK,57,27,680,57,2014-10-02T06:10:00,2,28218204,206449
OK,36,44,680,36,2014-10-02T06:15:00,5,28218653,206449
OK,36,44,680,36,2014-10-02T06:20:00,5,28219073,206449
OK,81,19,680,81,2014-10-02T06:25:00,4,28219522,206449
OK,78,20,680,78,2014-10-02T06:30:00,6,28219895,206449
OK,56,28,680,56,2014-10-02T06:35:00,2,28220344,206449
OK,69,23,680,69,2014-10-02T06:40:00,3,28220778,206449
OK,38,41,680,38,2014-10-02T06:45:00,3,28221227,206449
OK,68,23,680,68,2014-10-02T07:00:00,4,28221894,206449
OK,47,33,680,47,2014-10-02T07:05:00,7,28222039,206449
OK,38,41,680,38,2014-10-02T07:10:00,3,28222488,206449
OK,47,33,680,47,2014-10-02T07:15:00,0,28222937,206449
OK,47,33,680,47,2014-10-02T07:20:00,0,28223368,206449
OK,64,24,680,64,2014-10-02T07:25:00,4,28223803,206449
OK,39,40,680,39,2014-10-02T07:30:00,0,28224242,206449
OK,76,20,680,76,2014-10-02T07:35:00,3,28224606,206449
OK,129,12,680,129,2014-10-02T07:40:00,1,28225055,206449
OK,77,20,680,77,2014-10-02T07:50:00,4,28225826,206449
OK,76,20,680,76,2014-10-02T07:55:00,8,28226275,206449
OK,76,20,680,76,2014-10-02T08:00:00,3,28226716,206449
OK,65,24,680,65,2014-10-02T08:05:00,7,28227165,206449
OK,93,17,680,93,2014-10-02T08:10:00,1,28227580,206449
OK,53,29,680,53,2014-10-02T08:15:00,7,28228029,206449
OK,84,18,680,84,2014-10-02T08:20:00,2,28228388,206449
OK,47,33,680,47,2014-10-02T08:25:00,3,28228837,206449
OK,135,11,680,135,2014-10-02T08:30:00,0,28229247,206449
OK,39,40,680,39,2014-10-02T08:35:00,5,28229696,206449
OK,42,37,680,42,2014-10-02T08:40:00,2,28230046,206449
OK,42,37,680,42,2014-10-02T08:45:00,0,28230495,206449
OK,41,38,680,41,2014-10-02T08:50:00,1,28230861,206449
OK,41,38,680,41,2014-10-02T08:55:00,0,28231308,206449
OK,75,21,680,75,2014-10-02T09:00:00,7,28231733,206449
OK,77,20,680,77,2014-10-02T09:05:00,3,28232178,206449
OK,66,24,680,66,2014-10-02T09:15:00,0,28232524,206449
OK,66,24,680,66,2014-10-02T09:20:00,0,28232973,206449
OK,52,30,680,52,2014-10-02T09:25:00,4,28233422,206449
OK,40,39,680,40,2014-10-02T09:30:00,1,28233846,206449
OK,58,27,680,58,2014-10-02T09:35:00,0,28234287,206449
OK,58,27,680,58,2014-10-02T09:40:00,0,28234628,206449
OK,31,51,680,31,2014-10-02T09:45:00,2,28235077,206449
OK,33,48,680,33,2014-10-02T09:50:00,1,28235504,206449
OK,42,37,680,42,2014-10-02T09:55:00,6,28235953,206449
OK,42,37,680,42,2014-10-02T10:00:00,6,28236396,206449
OK,71,22,680,71,2014-10-02T10:05:00,0,28236843,206449
OK,57,27,680,57,2014-10-02T10:10:00,5,28237245,206449
OK,32,49,680,32,2014-10-02T10:15:00,7,28237693,206449
OK,33,48,680,33,2014-10-02T10:20:00,8,28238142,206449
OK,68,23,680,68,2014-10-02T10:25:00,2,28238589,206449
OK,80,19,680,80,2014-10-02T10:30:00,1,28239030,206449
OK,71,22,680,71,2014-10-02T10:35:00,14,28239479,206449
OK,86,18,680,86,2014-10-02T10:40:00,10,28239909,206449
OK,88,18,680,88,2014-10-02T10:45:00,1,28240358,206449
OK,88,18,680,88,2014-10-02T10:50:00,0,28240802,206449
OK,68,23,680,68,2014-10-02T10:55:00,5,28241251,206449
OK,108,14,680,108,2014-10-02T11:00:00,1,28241683,206449
OK,108,14,680,108,2014-10-02T11:05:00,0,28242131,206449
OK,64,24,680,64,2014-10-02T11:10:00,9,28242527,206449
OK,57,27,680,57,2014-10-02T11:15:00,6,28242976,206449
OK,45,35,680,45,2014-10-02T11:20:00,3,28243425,206449
OK,56,28,680,56,2014-10-02T11:25:00,1,28243750,206449
OK,56,28,680,56,2014-10-02T11:30:00,0,28244188,206449
OK,68,23,680,68,2014-10-02T11:35:00,5,28244617,206449
OK,70,22,680,70,2014-10-02T11:40:00,2,28245066,206449
OK,72,22,680,72,2014-10-02T11:45:00,0,28245515,206449
OK,63,25,680,63,2014-10-02T11:50:00,12,28245921,206449
OK,64,24,680,64,2014-10-02T11:55:00,19,28246370,206449
OK,54,29,680,54,2014-10-02T12:00:00,9,28246807,206449
OK,54,29,680,54,2014-10-02T12:05:00,1,28247255,206449
OK,54,29,680,54,2014-10-02T12:10:00,0,28247702,206449
OK,55,28,680,55,2014-10-02T12:15:00,10,28248132,206449
OK,52,30,680,52,2014-10-02T12:20:00,3,28248581,206449
OK,49,32,680,49,2014-10-02T12:25:00,3,28249028,206449
OK,49,32,680,49,2014-10-02T12:30:00,0,28249456,206449
OK,53,29,680,53,2014-10-02T12:35:00,11,28249900,206449
OK,72,22,680,72,2014-10-02T12:45:00,4,28250717,206449
OK,76,20,680,76,2014-10-02T12:50:00,3,28251466,206449
OK,50,31,680,50,2014-10-02T13:00:00,7,28251506,206449
OK,72,22,680,72,2014-10-02T13:20:00,9,28251577,206449
OK,71,22,680,71,2014-10-02T13:30:00,8,28252042,206449
OK,80,19,680,80,2014-10-02T13:35:00,6,28252179,206449
OK,89,17,680,89,2014-10-02T13:40:00,0,28252626,206449
OK,43,36,680,43,2014-10-02T13:45:00,5,28253068,206449
OK,44,36,680,44,2014-10-02T13:50:00,6,28253485,206449
OK,71,22,680,71,2014-10-02T13:55:00,17,28253934,206449
OK,59,26,680,59,2014-10-02T14:10:00,11,28254665,206449
OK,65,24,680,65,2014-10-02T14:15:00,10,28254788,206449
OK,76,20,680,76,2014-10-02T14:20:00,9,28255237,206449
OK,58,27,680,58,2014-10-02T14:25:00,4,28255686,206449
OK,75,21,680,75,2014-10-02T14:30:00,18,28256114,206449
OK,55,28,680,55,2014-10-02T14:35:00,5,28256563,206449
OK,59,26,680,59,2014-10-02T14:40:00,8,28256991,206449
OK,73,21,680,73,2014-10-02T14:45:00,13,28257440,206449
OK,79,20,680,79,2014-10-02T14:50:00,12,28257881,206449
OK,129,12,680,129,2014-10-02T14:55:00,6,28258329,206449
OK,76,20,680,76,2014-10-02T15:00:00,6,28258762,206449
OK,87,18,680,87,2014-10-02T15:05:00,5,28259208,206449
OK,81,19,680,81,2014-10-02T15:10:00,8,28259656,206449
OK,64,24,680,64,2014-10-02T15:15:00,6,28260104,206449
OK,39,40,680,39,2014-10-02T15:20:00,1,28260537,206449
OK,66,24,680,66,2014-10-02T15:25:00,10,28260985,206449
OK,70,22,680,70,2014-10-02T15:30:00,5,28261415,206449
OK,62,25,680,62,2014-10-02T15:40:00,3,28262238,206449